STARLINK-32265, 60415

Orbit data source: Space-Track

STARLINK-32265, 60415 is a payload satellite owned by SpaceX/Seattle (US) in LEO that was launched on Sat, 10 Aug 2024 UTC via an FALCON 9 launch vehicle from the Air Force Eastern Test Range (AFETR). Payload-class satellites include a variety of spacecraft equipped with specific instruments for various scientific and technological missions. These include communications satellites like Starlink; space stations such as the ISS; scientific satellites like the Hubble; Earth observation satellites from companies like Planet Labs, Umbra, and HawkEye 360; GPS; miniature CubeSats for education and research; and military/defense satellites.

Loading next visibility...
Identifier
60415, 2024-141T
Orbit
LEO
Country
Flag of USUS
Related business
Manufacturer
SpaceX/Seattle
Mission
Operational Commercial Communications
Bus & Motor
STARLINK V2M, Unknown motor
Mass
730 kg wet, ~700 kg dry
Launch date (UTC)
2024-08-10 (1 year ago)
Launch vehicle
FALCON 9
Launch site
Air Force Eastern Test Range (AFETR)
Object type
Payload
Rocket body
Debris
Shape & HBR
Box + 2 Pan, 17.7 m
Radar Cross Section
33.884 m², Large (>1 m²)

Expand to show TLE details & history
Last TLE update: 10 hours ago

TLE from 10 hours ago
0 STARLINK-32265
1 60415U 24141T   25299.56256012 -.00000456  00000-0 -32946-5 0  9998
2 60415  53.1595 145.7013 0000863 100.3441 259.7657 15.30190860 69040
Epoch: 2025-10-26T13:30Z
TLE epoch observation values (Epoch: 2025-10-26T13:30:05.194Z)
Latitude
-0.00002°
Longitude
-91.99733°
Altitude
476.247 km
Speed
7.629 km/s
True Right ascension
09h 42m 48s
True Declination
0° 00' 00"
Sunlit
Object was in daylight at epoch
Visualization orbit readout
Latitude
Unknown
Longitude
Unknown
Altitude
Unknown
Speed
Unknown
Apparent Right ascension
Unknown
Apparent Declination
Unknown
Sunlit
N/A
Visualization observer readout
Local Sidereal Time
18:51:15
Azimuth
Unknown
Elevation
Unknown
Doppler factor
Unknown
Orbital elements
Apogee altitude
476.09 km
Perigee altitude
474.907 km
Semi-major axis
6,853.636 km
Eccentricity
0.00009
Inclination
53.1595°
RAAN
145.7013°
Arg. of periapsis
100.3441°
True anomaly
259.75597°
Mean anomaly
259.7657°
Eccentric anomaly
259.76083°
Mean motion
3.82527 °/min
Orbital period
94.11 mins
BSTAR
-0.0000032946
Loading maneuver chart data...
Computing Atmospheric mass density...
Loading historical data...
Loading historical data...
Loading historical data...
Loading historical data...
Loading historical data...
Loading historical data...
Loading historical data...

Documentation

Showing up to 5 results
|